Location: Gradaro
(45.0833°N, 10.8833°E)
Time: 15:22:56
(UTC+00:00)

Cosmos 2181 Rocket - Pass Details

Date: 29 November 2020
Orbit: 951 x 1015 km, 82.9° (Epoch: 24 January)

Event Time Altitude Azimuth Distance (km) Brightness Sun altitude
Rises 04:56:35 0° 344° (NNW) 3,682 6.7 -16.5°
Reaches altitude 10° 04:59:17 10° 336° (NNW) 2,721 6.0 -16.0°
Maximum altitude 05:04:52 36° 272° (W) 1,469 4.4 -15.1°
Drops below altitude 10° 05:10:22 10° 208° (SSW) 2,676 6.2 -14.1°
Sets 05:13:01 0° 200° (SSW) 3,614 7.0 -13.7°
